Weather History for Eastover, SC

Change the Weather History Date:

Saturday, February 4, 2012

  Actual Average Record
Temperature  
Mean Temperature 60 °F -  
Max Temperature 72 °F 55 °F 72 °F (2012)
Min Temperature 48 °F 35 °F 19 °F (2009)
Degree Days  
Heating Degree Days 5    
Growing Degree Days 10 (Base 50)    
Moisture  
Dew Point 48 °F    
Average Humidity 66    
Maximum Humidity 79    
Minimum Humidity 51    
Precipitation  
Precipitation 0.00 in - - ()
Sea Level Pressure  
Sea Level Pressure 30.21 in    
Wind  
Wind Speed 5 mph (SSE)    
Max Wind Speed 13 mph    
Max Gust Speed 22 mph    
Visibility 10 miles    
Events      
Averages and records for this station are not official NWS values.
T = Trace of Precipitation, MM = Missing Value Source: NWS Daily Summary

Daily Weather History Graph

Daily Weather History Graph

Search for Another Location

Airport:

Trip Planner

Search our weather history database for the weather conditions in past years. The results will help you decide how hot, cold, wet, or windy it might be!

Date:

Astronomy

Feb. 04, 2012 Rise Set
Actual Time 7:18 AM EST 5:56 PM EST
Civil Twilight 6:52 AM EST 6:22 PM EST
Nautical Twilight 6:22 AM EST 6:52 PM EST
Astronomical Twilight 5:53 AM EST 7:21 PM EST
Moon 2:57 PM EST (2/4) 4:37 AM EST (2/4)
Length of Visible Light 11h 30m
Length of Day
10h 38m
Waxing Gibbous, 89% of the Moon is Illuminated
Feb 4
Waxing Gibbous
Feb 7
Full
Feb 14
Last Quarter
Feb 21
New
Feb 29
First Quarter

Hourly Weather History & Observations

Time (EST) Temp. Dew Point Humidity Pressure Visibility Wind Dir Wind Speed Gust Speed Precip Events Conditions
12:55 AM 48.6 °F 35.2 °F 60% 30.37 in 10.0 mi East 3.5 mph - N/A   Overcast
1:55 AM 48.4 °F 36.7 °F 64% 30.35 in 10.0 mi East 4.6 mph - N/A   Overcast
2:55 AM 49.5 °F 39.2 °F 68% 30.32 in 10.0 mi East 5.8 mph - N/A   Overcast
3:55 AM 50.5 °F 41.7 °F 72% 30.32 in 10.0 mi Calm Calm - N/A   Overcast
4:55 AM 50.4 °F 41.0 °F 70% 30.32 in 10.0 mi NE 3.5 mph - N/A   Mostly Cloudy
5:55 AM 49.1 °F 40.8 °F 73% 30.31 in 10.0 mi Calm Calm - N/A   Overcast
6:55 AM 50.2 °F 42.1 °F 74% 30.32 in 10.0 mi Calm Calm - N/A   Overcast
7:55 AM 50.5 °F 43.2 °F 76% 30.32 in 10.0 mi Calm Calm - N/A   Overcast
8:55 AM 52.3 °F 44.8 °F 75% 30.31 in 10.0 mi ESE 3.5 mph - N/A   Overcast
9:55 AM 55.2 °F 46.9 °F 74% 30.29 in 10.0 mi ESE 5.8 mph - N/A   Mostly Cloudy
10:55 AM 59.7 °F 48.4 °F 66% 30.28 in 10.0 mi Variable 3.5 mph - N/A   Mostly Cloudy
11:55 AM 63.9 °F 51.1 °F 63% 30.24 in 10.0 mi South 8.1 mph - N/A   Mostly Cloudy
12:55 PM 68.4 °F 53.4 °F 59% 30.19 in 10.0 mi SSW 12.7 mph - N/A   Mostly Cloudy
1:55 PM 68.7 °F 53.6 °F 58% 30.17 in 10.0 mi SSW 11.5 mph 21.9 mph N/A   Mostly Cloudy
2:55 PM 72.7 °F 53.4 °F 51% 30.12 in 10.0 mi SSW 10.4 mph - N/A   Mostly Cloudy
3:55 PM 72.1 °F 53.2 °F 51% 30.10 in 10.0 mi SSW 8.1 mph - N/A   Scattered Clouds
4:55 PM 71.1 °F 53.4 °F 54% 30.10 in 10.0 mi SSW 6.9 mph - N/A   Overcast
5:55 PM 69.6 °F 53.6 °F 57% 30.10 in 10.0 mi South 9.2 mph - N/A   Overcast
6:55 PM 67.3 °F 54.1 °F 63% 30.10 in 10.0 mi SSE 6.9 mph - N/A   Overcast
7:55 PM 66.2 °F 54.5 °F 66% 30.10 in 10.0 mi SSE 8.1 mph - N/A   Overcast
8:55 PM 63.7 °F 54.1 °F 71% 30.10 in 10.0 mi SSE 6.9 mph - N/A   Clear
9:55 PM 62.8 °F 54.5 °F 74% 30.09 in 10.0 mi South 9.2 mph - N/A   Clear
10:55 PM 62.2 °F 54.5 °F 76% 30.07 in 10.0 mi SSW 6.9 mph - N/A   Mostly Cloudy
11:55 PM 61.3 °F 54.7 °F 79% 30.05 in 10.0 mi South 8.1 mph - N/A   Clear